Time,TemperatureF,DewpointF,PressureIn,WindDirection,WindDirectionDegrees,WindSpeedMPH,WindSpeedGustMPH,Humidity,HourlyPrecipIn,Conditions,Clouds,dailyrainin,SoftwareType,DateUTC
2013-07-30 06:03:00,50.0,50.0,-100.00,ENE,75,2.0,3.0,99,-99.99,,,-99.99,,2013-07-30 10:03:00,
2013-07-30 06:12:00,51.0,51.0,-100.00,East,80,1.0,2.0,99,-99.99,,,-99.99,,2013-07-30 10:12:00,
2013-07-30 06:23:00,51.0,51.0,-100.00,East,80,1.0,2.0,99,-99.99,,,-99.99,,2013-07-30 10:23:00,
2013-07-30 06:32:00,51.0,51.0,-100.00,ENE,75,1.0,2.0,99,-99.99,,,-99.99,,2013-07-30 10:32:00,
2013-07-30 06:44:00,52.0,51.0,-100.00,ENE,75,1.0,2.0,99,-99.99,,,-99.99,,2013-07-30 10:44:00,
2013-07-30 06:52:00,52.0,52.0,-100.00,ESE,105,2.0,3.0,99,-99.99,,,-99.99,,2013-07-30 10:52:00,
2013-07-30 07:02:00,52.0,52.0,-100.00,SE,130,2.0,2.0,99,-99.99,,,-99.99,,2013-07-30 11:02:00,
2013-07-30 07:11:00,53.0,53.0,-100.00,SE,125,2.0,2.0,99,-99.99,,,-99.99,,2013-07-30 11:11:00,
2013-07-30 08:12:00,56.0,55.0,-100.00,SE,130,4.0,5.0,99,-99.99,,,-99.99,,2013-07-30 12:12:00,
2013-07-30 08:42:00,59.0,59.0,-100.00,ESE,120,1.0,5.0,99,-99.99,,,-99.99,,2013-07-30 12:42:00,
2013-07-30 09:12:00,62.0,60.0,-100.00,SE,125,2.0,4.0,96,-99.99,,,-99.99,,2013-07-30 13:12:00,
2013-07-30 09:22:00,63.0,58.0,-100.00,SE,145,5.0,7.0,82,-99.99,,,-99.99,,2013-07-30 13:22:00,
2013-07-30 09:33:00,65.0,54.0,-100.00,SSE,155,7.0,9.0,68,-99.99,,,-99.99,,2013-07-30 13:33:00,
2013-07-30 09:43:00,67.0,54.0,-100.00,SE,145,6.0,9.0,64,-99.99,,,-99.99,,2013-07-30 13:43:00,
2013-07-30 10:12:00,68.0,54.0,-100.00,SSE,150,7.0,9.0,60,-99.99,,,-99.99,,2013-07-30 14:12:00,
2013-07-30 10:22:00,69.0,54.0,-100.00,SE,125,5.0,8.0,61,-99.99,,,-99.99,,2013-07-30 14:22:00,
2013-07-30 10:33:00,69.0,55.0,-100.00,SE,145,3.0,7.0,61,-99.99,,,-99.99,,2013-07-30 14:33:00,
2013-07-30 11:02:00,72.0,56.0,-100.00,SSE,165,4.0,6.0,58,-99.99,,,-99.99,,2013-07-30 15:02:00,
2013-07-30 11:43:00,72.0,54.0,-100.00,SSE,165,3.0,8.0,53,-99.99,,,-99.99,,2013-07-30 15:43:00,
2013-07-30 12:23:00,71.0,55.0,-100.00,SSW,210,3.0,7.0,57,-99.99,,,-99.99,,2013-07-30 16:23:00,
2013-07-30 12:33:00,71.0,55.0,-100.00,SSW,210,2.0,6.0,58,-99.99,,,-99.99,,2013-07-30 16:33:00,
2013-07-30 12:44:00,71.0,56.0,-100.00,SW,225,4.0,6.0,58,-99.99,,,-99.99,,2013-07-30 16:44:00,
2013-07-30 14:12:00,72.0,56.0,-100.00,SSE,150,4.0,7.0,56,-99.99,,,-99.99,,2013-07-30 18:12:00,
2013-07-30 14:23:00,72.0,55.0,-100.00,SSE,150,6.0,9.0,55,-99.99,,,-99.99,,2013-07-30 18:23:00,
2013-07-30 14:32:00,72.0,55.0,-100.00,SSE,150,6.0,9.0,56,-99.99,,,-99.99,,2013-07-30 18:32:00,
2013-07-30 14:43:00,73.0,56.0,-100.00,SSE,165,3.0,7.0,56,-99.99,,,-99.99,,2013-07-30 18:43:00,
2013-07-30 15:12:00,73.0,56.0,-100.00,SW,215,4.0,7.0,57,-99.99,,,-99.99,,2013-07-30 19:12:00,
2013-07-30 15:22:00,73.0,57.0,-100.00,SSE,165,2.0,6.0,57,-99.99,,,-99.99,,2013-07-30 19:22:00,
2013-07-30 15:33:00,73.0,57.0,-100.00,SSE,150,3.0,7.0,58,-99.99,,,-99.99,,2013-07-30 19:33:00,
2013-07-30 15:44:00,73.0,57.0,-100.00,SW,225,4.0,9.0,57,-99.99,,,-99.99,,2013-07-30 19:44:00,
2013-07-30 16:22:00,72.0,57.0,-100.00,SSE,150,6.0,7.0,59,-99.99,,,-99.99,,2013-07-30 20:22:00,
2013-07-30 16:33:00,73.0,58.0,-100.00,SSE,150,4.0,8.0,59,-99.99,,,-99.99,,2013-07-30 20:33:00,
2013-07-30 16:43:00,73.0,57.0,-100.00,SE,145,3.0,7.0,58,-99.99,,,-99.99,,2013-07-30 20:43:00,
2013-07-30 17:02:00,74.0,57.0,-100.00,SE,145,4.0,7.0,57,-99.99,,,-99.99,,2013-07-30 21:02:00,
2013-07-30 18:22:00,73.0,58.0,-100.00,SSE,160,3.0,7.0,58,-99.99,,,-99.99,,2013-07-30 22:22:00,
2013-07-30 18:52:00,72.0,58.0,-100.00,SSW,200,2.0,6.0,61,-99.99,,,-99.99,,2013-07-30 22:52:00,
2013-07-30 19:02:00,72.0,58.0,-100.00,South,185,2.0,6.0,62,-99.99,,,-99.99,,2013-07-30 23:02:00,
2013-07-30 19:13:00,72.0,59.0,-100.00,SSW,195,1.0,7.0,63,-99.99,,,-99.99,,2013-07-30 23:13:00,
2013-07-30 19:22:00,72.0,59.0,-100.00,SSW,210,2.0,7.0,64,-99.99,,,-99.99,,2013-07-30 23:22:00,
2013-07-30 19:32:00,71.0,60.0,-100.00,SSW,200,2.0,6.0,67,-99.99,,,-99.99,,2013-07-30 23:32:00,
2013-07-30 19:42:00,71.0,60.0,-100.00,SW,215,1.0,6.0,68,-99.99,,,-99.99,,2013-07-30 23:42:00,
2013-07-30 19:53:00,71.0,60.0,-100.00,SSW,195,2.0,7.0,69,-99.99,,,-99.99,,2013-07-30 23:53:00,
2013-07-30 20:02:00,71.0,61.0,-100.00,South,175,3.0,6.0,71,-99.99,,,-99.99,,2013-07-31 00:02:00,
2013-07-30 20:12:00,70.0,60.0,-100.00,SSE,165,2.0,6.0,71,-99.99,,,-99.99,,2013-07-31 00:12:00,
2013-07-30 20:32:00,70.0,60.0,-100.00,South,180,1.0,7.0,72,-99.99,,,-99.99,,2013-07-31 00:32:00,
2013-07-30 20:43:00,70.0,60.0,-100.00,SSE,165,2.0,7.0,72,-99.99,,,-99.99,,2013-07-31 00:43:00,
2013-07-30 20:53:00,69.0,60.0,-100.00,SSE,150,2.0,6.0,72,-99.99,,,-99.99,,2013-07-31 00:53:00,
2013-07-30 21:02:00,69.0,60.0,-100.00,SSE,155,3.0,6.0,73,-99.99,,,-99.99,,2013-07-31 01:02:00,
2013-07-30 22:02:00,68.0,60.0,-100.00,SSW,210,5.0,10.0,76,-99.99,,,-99.99,,2013-07-31 02:02:00,
2013-07-30 22:43:00,66.0,63.0,-100.00,SW,235,6.0,7.0,88,-99.99,,,-99.99,,2013-07-31 02:43:00,
2013-07-30 23:12:00,65.0,62.0,-100.00,South,190,2.0,8.0,92,-99.99,,,-99.99,,2013-07-31 03:12:00,
2013-07-30 23:22:00,65.0,62.0,-100.00,South,185,1.0,6.0,90,-99.99,,,-99.99,,2013-07-31 03:22:00,
2013-07-30 23:32:00,65.0,61.0,-100.00,SSE,160,1.0,4.0,89,-99.99,,,-99.99,,2013-07-31 03:32:00,
2013-07-30 23:42:00,64.0,61.0,-100.00,SW,215,2.0,4.0,89,-99.99,,,-99.99,,2013-07-31 03:42:00,
2013-07-30 23:52:00,64.0,61.0,-100.00,South,190,2.0,4.0,90,-99.99,,,-99.99,,2013-07-31 03:52:00,